Regional Weather Roundup
Issued by NWS

Home | Current Version | Previous Version | Graphics & Text | Print | Product List | Glossary Off
Versions: 1 2 3 4 5 6 7 8 9 10 11 12 13 14 15 16 17 18 19 20 21 22 23 24 25 26 27 28 29 30 31 32 33 34 35 36 37 38 39 40 41 42 43 44 45 46 47 48 49 50

000
ASUS43 KMKX 160911
RWRWI

WISCONSIN REGIONAL WEATHER ROUNDUP
NATIONAL WEATHER SERVICE MILWAUKEE/SULLIVAN WI
400 AM CDT TUE SEP 16 2014

NOTE: "FAIR" INDICATES FEW OR NO CLOUDS BELOW 12,000 FEET WITH NO
SIGNIFICANT WEATHER AND/OR OBSTRUCTIONS TO VISIBILITY.

WIZ001-002-006>008-014>016-023>028-161000-
NORTHWEST WISCONSIN

CITY           SKY/WX    TMP DP  RH WIND       PRES   REMARKS
SUPERIOR ARPT  CLEAR     41  37  86 SW9       30.12F
ASHLAND        PTCLDY    43  37  79 SW9       30.14S
HAYWARD        CLEAR     33  32  96 CALM      30.17S
SIREN          CLEAR     40  36  86 SW5       30.17F
RICE LAKE      CLEAR     37  36  97 CALM      30.20F
LADYSMITH      CLEAR     36  35  96 CALM      30.20S
EAU CLAIRE     CLEAR     39  37  92 SW6       30.20S WCI  35
MENOMONIE      SUNNY     38  38  97 CALM      30.21S
NEW RICHMOND   CLEAR     38  38  99 S5        30.20S WCI  34
OSCEOLA        CLEAR     37  37 100 CALM      30.22S
$$

WIZ003>005-009-010-017-018-161000-
NORTH CENTRAL WISCONSIN

CITY           SKY/WX    TMP DP  RH WIND       PRES   REMARKS
WOODRUFF       CLEAR     37  35  92 CALM      30.15S
RHINELANDER    CLEAR     33  31  92 W6        30.16S WCI  28
EAGLE RIVER    FOG       32  32 100 CALM      30.14S VSB 1
LAND O LAKES   CLEAR     30  30 100 CALM      30.14S
PHILLIPS       CLEAR     34  33  99 CALM      30.16S
TOMAHAWK       CLEAR     31  30  96 CALM      30.17S
MEDFORD        CLEAR     35  35  97 CALM      30.18S
MERRILL        MOCLDY    33  33  99 CALM      30.17F
$$

WIZ029-030-035-036-043>047-161000-
CENTRAL WISCONSIN

CITY           SKY/WX    TMP DP  RH WIND       PRES   REMARKS
WAUSAU         CLEAR     39  37  92 N3        30.17S
MOSINEE        CLEAR     37  37 100 W3        30.19S
MARSHFIELD     CLEAR     38  35  89 W5        30.18F WCI  34
STEVENS POINT  CLEAR     33  32  96 CALM      30.19F
WAUPACA        CLEAR     40  38  95 CALM      30.19S
WAUTOMA        CLEAR     36  35  96 CALM      30.21S
WISC RAPIDS    CLEAR     37  36  96 CALM      30.21S FOG
CAMP DOUGLAS   CLEAR     34  34 100 CALM      30.20F FOG
$$

WIZ011>013-019>022-031-037>040-048>050-161000-
NORTHEAST WISCONSIN

CITY           SKY/WX    TMP DP  RH WIND       PRES   REMARKS
ANTIGO         CLEAR     34  34  99 CALM      30.17S
STURGEON BAY   CLEAR     43  39  87 CALM      30.16S
GREEN BAY      CLEAR     40  39  97 W5        30.17F
MANITOWOC      CLEAR     44  41  89 CALM      30.18R
APPLETON       CLEAR     39  37  93 W8        30.19S WCI  34
CLINTONVILLE   CLEAR     37  36  93 CALM      30.18S
OSHKOSH        CLEAR     43  40  89 W6        30.19S
$$

WIZ032>034-041-042-053>061-161000-
SOUTHWEST WISCONSIN

CITY           SKY/WX    TMP DP  RH WIND       PRES   REMARKS
LA CROSSE      FOG       46  45  96 S7        30.22S VSB 3/4
SPARTA         CLOUDY    33  33 100 CALM      30.23S
VIROQUA        FAIR      41  41 100 SW5       30.22S
BOSCOBEL       FOG       45  43  93 SW3       30.24F VSB 1/4
PRAIRIE DU CHI FOG       41  40  96 CALM      30.24S VSB 1/4
PLATTEVILLE      N/A     40  39  97 CALM      30.23S VSB 1/2
$$

WIZ056-057-062-063-064-067-068-161000-
SOUTH CENTRAL WISCONSIN

CITY           SKY/WX    TMP DP  RH WIND       PRES   REMARKS
BARABOO/DELLS  CLEAR     40  39  96 CALM      30.21F
LONE ROCK      HAZE      45  40  82 W3        30.23F VSB 1/4
WATERTOWN      CLEAR     39  39 100 CALM      30.20S
MADISON        CLEAR     39  37  92 CALM      30.21F
MIDDLETON      FAIR      40  40 100 CALM      30.22S
MONROE         CLEAR     45  41  87 NW8       30.21S
JANESVILLE       N/A     43  41  93 CALM      30.20S FOG
$$

WIZ051-052-058>065-066-070>072-161000-
SOUTHEAST WISCONSIN

CITY           SKY/WX    TMP DP  RH WIND       PRES   REMARKS
MILWAUKEE      CLEAR     47  43  86 NW7       30.19R
WAUKESHA       CLEAR     43  41  93 W6        30.20S
MILWAUKEE/TIMM   N/A     43  39  87 CALM      30.20R
RACINE         CLEAR     46  43  89 NW6       30.20R
BURLINGTON     CLEAR     43  42  97 NW5       30.19S
KENOSHA        CLEAR     46  43  89 NW6       30.19S
FOND DU LAC    CLEAR     40  38  93 S3        30.20R
SHEBOYGAN      CLEAR     43  39  86 CALM      30.18S
WEST BEND      FOG       41  37  87 CALM      30.19S VSB 1/2
JUNEAU         CLEAR     42  40  94 W3        30.22R
$$

LSZ147-162-161000-
LAKE SUPERIOR

STATION/POSITION TIME  TEMP    WIND        PRES    WAVE
                       AIR SEA DIR/SP/G            HT/PER
                 (UTC) (F)     (DEG/KT/KT) (MB)    (FT/S)
W MID LAKE BUOY  0850   50 47  240/ 14/ 16 1018.3F   2/ 4
DEVILS ISLAND    0900   51     240/ 17/ 19 1019.3F
PORT WING        0800   46     200/  6/  7 1020.3S
SAXON HARBOR     0800   47     190/  5/  9 1020.3
$$

LMZ867-665-643>646-161000-
LAKE MICHIGAN

STATION/POSITION TIME  TEMP    WIND        PRES    WAVE
                       AIR SEA DIR/SP/G            HT/PER
                 (UTC) (F)     (DEG/KT/KT) (MB)    (FT/S)
N MID LAKE BUOY  0850   54 58  300/ 10/ 12 1020.3S   1/ 3
NORTHPORT PIER   0800   52     280/  5/  7 1020.7R
KEWAUNEE LAKESHO 0800   45     300/  4/  5 1020.3R
SHEBOYGAN LAKESH 0900   47 48  290/  7/  8 1022.4R
PORT WASHINGTON  0840   48     300/  6/  9 1022.4R
ATWATER BUOY     0900   51     310/ 10/ 12 1022.9R
MILWAUKEE LAKESH 0800   50     310/  8/ 12   N/A
S MID LAKE BUOY  0850   58 64  310/ 10/ 12 1021.6F   1/ 3
KENOSHA   LAKESH 0900   48     310/  9/ 13 1021.7F
$$

TC  - TEMPERATURE IN CELSIUS
VSB - VISIBILITY IN STATUTE MILES
WCI - WIND CHILL INDEX
HX  - HEAT INDEX



USA.gov is the U.S. government's official web portal to all federal, state and local government web resources and services.